Tracking 25949 objects as of 8-Aug-2022
HD Live streaming from Space Station
objects crossing your sky now

COSMOS 1275 DEB

Track COSMOS 1275 DEB now!
10-day predictions


NORAD ID: 42184
Int'l Code: 1981-053SY
Perigee: 966.7 km
Apogee: 1,108.3 km
Inclination: 83.0 °
Period: 105.8 minutes
Semi major axis: 7408 km
RCS: Unknown
Launch date: June 4, 1981
Source: Commonwealth of Independent States (former USSR) (CIS)
Launch site: PLESETSK MISSILE AND SPACE COMPLEX (PKMTR)

Note: This is SATELLITE DEBRIS
aabbcc
Your satellite tracking list
Your tracking list is empty




NASA's NSSDC Master Catalog

Two Line Element Set (TLE):
1 42184U 81053SY  22220.52172976  .00000163  00000-0  18849-3 0  9996
2 42184  83.0201 237.0604 0095590 352.6051 161.4777 13.61467900419810
Source of the keplerian elements: AFSPC